www.pogodaiklimat.ru

Погода и климат >> Архив погоды >> Россия >> Новгородская область >> Валдай


ПОГОДА в Валдае

  • Прогноз погоды в Валдае
  • Монитор погоды в Валдае
  • Климат города

АРХИВ ПОГОДЫ в Валдае

Время (UTC), дата Ветер
(напр.,м/с)
 
Видим.   Явления Облачность Т
(С)
Тd
(С)
f
(%)
Тe
(С)
Тes
(С)
Комфортность P
(гПа)
Po
(гПа)
Тmin
(С)
Tmax
(С)
R
(мм)
R24
(мм)
S
(см)
03 13.09 Ю 4
{10}
20 км 9/6 600 м
[Sc Ci sp]
+11.5 +8.4 81 +9 +9 1009.3 985.3 +11.5 0.0
06 13.09 З 1
{10}
20 км 9/9 600 м
[Cb cap]
+12.8 +8.6 76 +13 +13 1010.6 986.9 +11.5 0.0
09 13.09 ЮЗ 4
{10}
20 км 8/8 600 м
[Cb cap]
+15.5 +7.0 57 +15 +16 1012.7 988.9
12 13.09 ЮЗ 3
{10}
20 км 8/8 600 м
[Cu Sc]
+16.6 +6.6 52 +16 +17 1014.2 990.5
15 13.09 ЮЗ 3-10
{11}
20 км 1/1 600 м
[Sc]
+15.9 +6.9 55 +16 +16 1014.9 991.1
18 13.09 Ю 2
{11}
20 км ясно +12.6 +7.5 71 +12 +12 1016.2 992.1 +20.5
21 13.09 ЮЗ 1 20 км ясно +10.8 +7.1 78 +11 +11 1017.1 992.9
00 14.09 Ю 1 20 км ясно +7.4 +6.0 91 +6 +6 1018.1 993.5
03 14.09 Ю 1 20 км 1/0
[Ci fib]
+6.6 +5.6 93 +5 +5 1018.8 994.2 +6.5
06 14.09 Ю 2 20 км 9/0
[Ci]
+11.8 +8.1 78 +11 +13 1019.1 994.9 +6.4
09 14.09 Ю 3 20 км 5/1 600 м
[Sc Ac trans]
+16.7 +7.8 56 +17 +20 1018.7 994.9
12 14.09 Ю 2 20 км 8/5 600 м
[Cu Sc Ac trans]
+17.8 +6.3 47 +18 +20 1018.1 994.4
15 14.09 ЮЗ 1 20 км 3/3 600 м
[Cu med, cong]
+16.4 +6.6 52 +17 +18 1017.6 993.8
18 14.09 штиль 0 20 км 4/1 600 м
[Sc Cs]
+9.3 +7.6 89 +8 +8 1019.1 994.7 +18.8
21 14.09 штиль 0 20 км 3/0
[Cs]
+6.6 +5.6 93 +6 +6 1019.9 995.2
00 15.09 штиль 0 20 км ясно +5.6 +4.6 93 +5 +5 1020.7 995.9
03 15.09 штиль 0 20 км 8/3 600 м
[Sc Ci fib]
+6.4 +5.2 92 +5 +5 1020.5 995.8 +5.1
06 15.09 штиль 0 20 км 3/0
[Ci fib]
+14.0 +8.0 67 +14 +16 1020.1 996.1 +5.1
09 15.09 Ю 2 20 км 6/3 600 м
[Cu med, cong Ci fib]
+17.1 +7.5 53 +17 +22 1019.8 996.0
12 15.09 ЮВ 1 20 км 8/5 600 м
[Cu med, cong Ci fib]
+18.2 +6.6 47 +19 +22 1017.9 994.2
15 15.09 ЮВ 1 20 км 9/1 600 м
[Sc Ac As Cs]
+16.1 +8.6 61 +17 +17 1016.7 992.9
18 15.09 штиль 0 20 км 10/0
[Ac As]
+11.9 +9.0 82 +11 +11 1016.3 992.2 +19.3
21 15.09 ЮВ 1 20 км 9/9 600 м
[Sc]
+11.7 +8.9 83 +12 +12 1014.8 990.7
00 16.09 З 1 20 км {ливн. осадки} 10/10 630 м
[Sc]
+11.3 +9.5 89 +11 +11 1013.3 989.2
03 16.09 ЮЗ 1 20 км 10/10 660 м
[Sc]
+11.2 +8.6 84 +11 +11 1012.1 988.0 +11.1 0.0
06 16.09 ЮЗ 2 20 км 8/1 600 м
[Sc Cs]
+11.7 +8.7 82 +11 +12 1011.7 987.7 +9.9 0.0
09 16.09 З 1 20 км 10/10 480 м
[Cb cap]
+11.8 +8.6 81 +12 +12 1012.2 988.2
12 16.09 ЮЗ 1 20 км {ливн. осадки} 9/9 300 м
[Cb cap Ci fib]
+12.8 +10.6 86 +13 +13 1012.2 988.3
15 16.09 З 1 20 км в посл. час ливневой дождь 3/3 600 м
[Cb cap]
+11.3 +8.2 81 +11 +11 1014.1 990.0 0.9
18 16.09 ЮЗ 1 20 км местами туман поземный {ливн. осадки} ясно +7.6 +6.7 94 +7 +7 1016.0 991.5 +13.4 0.9
21 16.09 ЮЗ 1 20 км {туман} ясно +6.8 +5.0 88 +6 +6 1016.8 992.2
00 17.09 ЮЗ 1 20 км {туман} ясно +6.2 +4.6 89 +5 +5 1016.9 992.3
03 17.09 ЮЗ 1 20 км ясно +5.7 +4.8 94 +4 +4 1017.2 992.5 +5.7
06 17.09 Ю 2 7000 м дымка 10/10 500 м
[St]
+7.4 +6.7 95 +5 +5 1017.7 993.1 +5.7
09 17.09 ЮЗ 3 20 км 8/8 600 м
[Sc Ci fib]
+12.9 +7.5 70 +12 +13 1016.5 992.5
12 17.09 Ю 3 20 км 9/6 600 м
[Cu Sc As trans Ci fib]
+14.2 +4.8 53 +13 +14 1015.0 991.1
15 17.09 Ю 3 9000 м слабый дождь 10/9 300 м
[Frnb As op]
+11.2 +8.4 83 +9 +9 1013.6 989.5 0.0
18 17.09 Ю 4 10 км слабый дождь 10/10 360 м
[Frnb Ns]
+11.2 +9.7 90 +9 +9 1010.6 986.6 +15.7 3
21 17.09 Ю 4
{11}
20 км {дождь} 10/10 300 м
[St]
+12.0 +10.2 89 +10 +10 1009.2 985.3
00 18.09 ЮЗ 2 20 км {дождь} 10/10 330 м
[St]
+12.1 +10.3 89 +11 +11 1009.1 985.2
03 18.09 ЮЗ 2 20 км в посл. час ливневой дождь 10/10 300 м
[Cb cap]
+11.4 +9.9 90 +10 +10 1010.0 986.0 +10.8 4
06 18.09 ЮЗ 1 20 км {ливн. осадки} 9/9 600 м
[Cb cap Ci fib]
+11.3 +8.8 85 +11 +11 1012.5 988.4 +11.2 0.8
09 18.09 З 2 20 км 9/8 600 м
[Cb cap Ac trans Ci fib]
+13.3 +7.2 67 +13 +14 1014.3 990.3
12 18.09 ЮЗ 3 20 км 9/6 600 м
[Cu Sc Ci fib]
+15.2 +6.4 56 +15 +16 1015.0 991.2
15 18.09 З 1 20 км 8/1 600 м
[Sc Ci fib]
+13.2 +6.9 66 +14 +14 1015.6 991.6 0.0
18 18.09 Ю 1 20 км 9/9 600 м
[Sc]
+11.2 +7.7 79 +11 +11 1016.2 992.0 +15.5
21 18.09 Ю 2 20 км 10/10 600 м
[Cb cap]
+12.1 +8.3 78 +11 +11 1015.5 991.4
00 19.09 Ю 2 10 км слабый ливневой дождь 10/10 600 м
[Cb cap]
+11.0 +9.8 92 +10 +10 1014.2 990.1
03 19.09 ЮЗ 2 20 км {ливн. осадки} 6/4 600 м
[Sc Ac trans]
+11.6 +10.2 91 +10 +10 1013.1 989.0 +10.4 0.5
06 19.09 ЮЗ 3 20 км {ливн. осадки} 1/0
[Ac trans]
+14.7 +11.2 80 +14 +15 1012.7 988.9 +10.4 0.5
09 19.09 ЮЗ 4 20 км ясно +18.9 +10.7 59 +20 +23 1012.1 988.7
12 19.09 ЮЗ 3 20 км ясно +22.1 +11.6 51 +24 +28 комфорт 1011.6 988.4
15 19.09 Ю 2 20 км ясно +21.0 +10.1 50 +23 +24 комфорт 1011.0 987.8
18 19.09 Ю 2 20 км ясно +17.7 +11.0 65 +18 +18 1011.0 987.5 +22.9
21 19.09 ЮЗ 2 20 км ясно +17.6 +12.5 72 +18 +18 1010.8 987.3
00 20.09 ЮЗ 1 20 км 3/1 600 м
[Sc Ci fib]
+14.6 +12.3 86 +15 +15 1011.6 987.9

 

Местоположение метеостанции Валдай (Новгородская область, Россия): широта 57.99 долгота 33.25 высота над уровнем моря 195 м.

В архиве по умолчанию представлена погода в Валдае за последнюю неделю. Архивные данные за месяц целиком и за предыдущие месяцы, начиная с января 2011 года, Вы можете получить, выбрав интересующий диапазон дат из раскрывающегося списка и нажав кнопку "Ввод!".


*Определитесь, кто Вы:
робот инопланетянин человек

Внимание! Время в таблицах - всемирное. Для получения местного времени необходимо прибавить поправку, которая в Валдае равна 3 ч.

Смотрите также архив погоды в соседних городах и на ближайших метеорологических станциях:

Погода в Окуловке (Новгородская область, Россия) (42 км)
Погода в Бологом (Тверская область, Россия) (48 км)
Погода в Крестцах (Новгородская область, Россия) (53 км)
Погода в Демянске (Новгородская область, Россия) (60 км)
Погода в Боровичах (Новгородская область, Россия) (61 км)
Погода в Вышнем Волочке (Тверская область, Россия) (93 км)
Погода в Осташкове (Тверская область, Россия) (98 км)
Погода в Удомле (Тверская область, Россия) (105 км)
Погода в Охонах (Новгородская область, Россия) (110 км)
Погода в Старой Руссе (Новгородская область, Россия) (114 км)

Пояснения к столбцам:

Ветер - указаны скорость ветра в м/с - средняя за 10 мин, порывы в срок и между сроками (в фигурных скобках) и направление, откуда дует ветер: С - северный, СВ - северо-восточный, В - восточный, ЮВ - юго-восточный, Ю - южный, ЮЗ - юго-западный, З - западный, СЗ - северо-западный.
Видимость - горизонтальная дальность видимости в метрах или километрах. При видимости от 1 до 10 км при отсутствии осадков обычно наблюдается дымка, при ухудшении видимости до 1 км и менее - туман. В сухую погоду видимость может ухудшаться дымом, пылью или мглою.
Явления - указаны атмосферные явления, наблюдавшиеся в срок или в последний час перед сроком; фигурными скобками обозначены явления, наблюдавшиеся между сроками (за 1-3 часа до срока); квадратными скобками обозначены град или гололедные отложения с указанием их диаметра в мм.
Облачность - указаны через наклонную черту общая и нижняя облачность в баллах и высота нижней границы облаков в метрах; квадратными скобками обозначены формы облаков: Ci - перистые, Cs - перисто-слоистые, Cc - перисто-кучевые, Ac - высококучевые, As - высокослоистые, Sc - слоисто-кучевые, Ns - слоисто-дождевые, Cu - кучевые, Cb - кучево-дождевые. Подробнее классификацию облаков см. в Атласе облаков (PDF).
T - Температура воздуха - температура, измеренная на высоте 2 м над землей.
Td - Температура точки росы - температура, при понижении до которой содержащийся в воздухе водяной пар достигнет насыщения.
f - Относительная влажность воздуха - влажноcть воздуха, измеренная на высоте 2 м над землей.
Te - Эффективная температура - температура, которую ощущает одетый по сезону человек в тени. Характеристика душности погоды. При расчете учитывается влияние влажности воздуха и скорости ветра на теплоощущения человека.
Tes - Эффективная температура на солнце - температура, которую ощущает человек, с поправкой на солнечный нагрев. Характеристика знойности погоды. Зависит от высоты солнца над горизонтом, облачности и скорости ветра. Ночью, в пасмурную погоду, а также при ветре 12 м/с и более поправка равна нулю.
P - Атмосферное давление - приведенное к уровню моря атмосферное давление.
Po - Атмосферное давление - измеренное на уровне метеостанции атмосферное давление.
Tmin - Минимальная температура - минимум температуры воздуха на высоте 2 м над землей.
Tmax - Максимальная температура - максимум температуры воздуха на высоте 2 м над землей.
R - Количество осадков - Количество выпавших осадков за период времени, мм. При наведении курсора мыши на число - период времени, за который выпало указанное количество осадков.
R24 - Количество осадков - Количество выпавших осадков за 24 часа, мм.
S - Снежный покров - Высота снежного покрова, см. При наведении курсора мыши на число - состояние снежного покрова и степень покрытия местности в баллах.